Regional Weather Roundup
Issued by NWS Cleveland, OH

Home | Current Version | Previous Version | Text Only | Print | Product List | Glossary Off
Versions: 1 2 3 4 5 6 7 8 9 10 11 12 13 14 15 16 17 18 19 20 21 22 23 24 25 26 27 28 29 30 31 32 33 34 35 36 37 38 39 40 41 42 43 44 45 46 47 48 49 50

000
ASUS41 KCLE 220302
RWRCLE
OHIO REGIONAL WEATHER ROUNDUP
NATIONAL WEATHER SERVICE CLEVELAND, OH
1100 PM EDT SAT OCT 21 2017

NOTE: "FAIR" INDICATES FEW OR NO CLOUDS BELOW 12,000 FEET WITH NO
SIGNIFICANT WEATHER AND/OR OBSTRUCTIONS TO VISIBILITY.

OHZ001>008-015>018-024>027-034-035-043-044-220400-
   NORTHWEST OHIO

CITY           SKY/WX    TMP DP  RH WIND       PRES   REMARKS
DEFIANCE       PTCLDY    64  45  49 S8        30.17S
FINDLAY        PTCLDY    60  44  55 S7        30.18S
TOLEDO EXPRESS PTCLDY    63  45  51 S6        30.17S
TOLEDO EXEC    PTCLDY    59  43  55 S6        30.19R
LIMA           PTCLDY    59  48  67 S5        30.19F
$$

OHZ009>014-019>023-028>033-038-089-220400-
   NORTHEAST OHIO

CITY           SKY/WX    TMP DP  RH WIND       PRES   REMARKS
CLE-HOPKINS    MOCLDY    60  51  72 S8        30.23F
CLE-LAKEFRONT  PTCLDY    65  49  56 S13       30.20F
CUY CO. ARPT   MOCLDY    66  50  55 S12       30.23S
LORAIN-ELYRIA  PTCLDY    61  47  59 S8        30.22F
ASHTABULA      PTCLDY    61  51  70 S6        30.24F
AKRON-CANTON   CLOUDY    56  48  74 S7        30.25F
WOOSTER        PTCLDY    51  49  92 CALM      30.25S
MANSFIELD      PTCLDY    61  52  72 S9        30.23F
YOUNGSTOWN     MOCLDY    58  50  75 S6        30.26F
$$

OHZ042-051>053-060>062-070>072-077>081-220400-
  SOUTHWEST OHIO

CITY           SKY/WX    TMP DP  RH WIND       PRES   REMARKS
CINC-COVINGTON MOCLDY    60  48  64 S6        30.20F
CINC-LUNKEN    PTCLDY    51  50  96 CALM      30.22S
HAMILTON       PTCLDY    57  51  80 SE3       30.20F
DAYTON         PTCLDY    57  51  80 SE8       30.21S
WRIGHT-PAT AFB MOCLDY    60  50  69 SE7       30.20F
DAYTON GENERAL PTCLDY    61  48  62 SE7       30.20F
WILMINGTON     MOCLDY    61  52  72 S5        30.22F
$$

OHZ036-037-039>041-045>050-054>059-063>069-073>076-082>088-220400-
  CENTRAL AND SOUTHEAST OHIO

CITY           SKY/WX    TMP DP  RH WIND       PRES   REMARKS
COLUMBUS       CLOUDY    64  52  64 SE6       30.22F
OSU AIRPORT    CLOUDY    64  53  67 SE7       30.22F
BOLTON FIELD   CLOUDY    60  52  74 S5        30.23F
RICKENBACK AFB CLOUDY    58  52  78 SE6       30.22F
NEWARK         PTCLDY    53  50  89 CALM      30.23F
MARION         PTCLDY    61  50  67 S7        30.22S
LANCASTER      PTCLDY    49  48  97 CALM      30.24S
ZANESVILLE     PTCLDY    54  51  90 CALM      30.25S
NEW PHILLY     NOT AVBL
$$




USA.gov is the U.S. government's official web portal to all federal, state and local government web resources and services.